Location: Siratepeler Tepesi
(39.1042°N, 32.0781°E)
Time: 01:57:42
(UTC+00:00)

Cosmos 494 Rocket - Pass Details

Date: 11 April 2026
Orbit: 737 x 766 km, 74.1° (Epoch: 13 May)

Event Time Altitude Azimuth Distance (km) Brightness Sun altitude
Rises 18:38:56 0° 341° (NNW) 3,204 8.0 -24.6°
Reaches altitude 10° 18:41:18 10° 342° (NNW) 2,281 7.1 -24.9°
Maximum altitude 18:46:29 85° 72° (ENE) 764 3.8 -25.7°
Enters shadow 18:46:38 83° 115° (ESE) 766 3.8 -25.8°
